Temperature
15 16 16 16 16 15 15 14 14 15 14 15 15 14 15 15 15 15 16 16 16 16 16 16 15 15 15 15 15 15 15 15 15 14 14 14 14 14 14 13 13 13 13 13
15 16 15 15 15 15 15 15 14 14 14 14 14 14 14 15 15 15 15 15 15 16 15 15 15 15 15 15 15 15 15 14 14 14 14 14 14 13 13 13 13 13 13 12
14 14 15 15 15 15 15 15 14 14 14 13 13 13 14 15 15 15 15 15 15 15 15 15 15 15 15 15 15 14 14 14 14 14 14 14 13 13 13 13 13 13 12 12
12 14 15 15 15 15 15 14 14 14 13 13 13 14 14 15 15 15 15 15 15 14 15 15 14 14 14 14 14 14 14 14 14 14 13 13 13 13 13 13 12 12 12 12
11 13 13 14 14 14 14 14 14 13 13 13 13 13 13 14 15 15 14 14 14 14 14 14 14 14 14 14 14 14 13 13 13 13 13 13 13 13 12 12 12 12 12 12
10 13 13 14 15 15 15 14 14 13 12 12 13 11 12 14 14 14 14 14 14 14 14 14 14 13 13 13 13 13 13 13 13 13 12 12 12 12 12 12 12 12 11 11
10 12 12 13 14 14 14 14 14 13 13 13 12 13 14 14 14 14 14 14 13 13 13 13 13 13 13 13 13 13 12 12 12 12 12 12 12 12 12 11 11 11 11 11
9 11 12 13 13 13 13 14 14 14 14 13 14 14 14 14 13 13 13 13 13 13 13 13 13 12 12 12 12 12 12 12 12 12 12 12 12 11 11 11 11 11 11 11
10 12 12 13 14 14 15 14 14 14 14 14 13 13 13 13 13 13 13 13 12 12 12 12 12 12 12 12 12 11 11 11 11 11 11 11 11 11 11 10 10 10 10 10
9 10 12 13 14 14 14 14 14 14 14 13 13 13 13 12 12 12 12 12 12 12 12 11 11 11 11 11 11 11 11 11 11 11 10 10 10 10 10 10 10 10 10 10
9 10 11 13 14 14 14 14 14 14 13 13 13 13 12 12 12 12 12 11 11 11 11 11 11 11 11 11 10 10 10 10 10 10 10 10 10 10 10 10 9 9 9 9
10 11 11 12 13 13 13 13 13 13 13 12 12 12 12 11 11 11 11 11 11 11 11 10 10 10 10 10 10 10 10 10 10 10 10 9 9 9 9 9 9 9 9 9
13 13 13 13 13 13 13 13 13 13 12 12 12 11 11 11 11 11 11 10 10 10 10 10 10 10 10 10 10 9 9 9 9 9 9 9 9 8 8 9 8 8 8 8
12 12 12 12 12 12 12 12 12 12 12 11 11 11 11 10 10 10 10 10 10 9 9 9 9 9 9 9 9 9 9 9 9 8 8 8 8 8 8 8 8 8 8 8
12 12 12 12 12 12 12 12 11 11 11 11 10 10 10 10 10 10 9 9 9 9 9 9 9 9 9 8 8 8 8 8 8 8 8 8 8 7 7 7 7 7 7 7
11 11 11 11 11 11 11 11 10 10 10 10 10 10 9 9 9 9 9 9 8 8 8 8 8 8 8 8 8 8 8 7 7 7 7 7 7 7 7 7 6 6 6 6
10 10 10 10 10 10 10 10 10 9 9 9 9 9 9 9 8 8 8 8 8 8 7 7 7 7 7 7 7 7 7 7 7 7 7 6 6 6 6 6 6 6 6 6
11 11 11 11 10 10 9 9 9 9 9 9 8 8 8 8 8 8 8 8 7 7 7 7 7 7 7 7 7 6 6 6 6 6 6 6 6 6 6 6 6 5 5 5
10 10 10 10 10 9 9 9 9 8 8 8 8 8 8 7 7 7 7 7 7 7 7 7 6 6 6 6 6 6 6 6 6 6 5 5 5 5 5 5 5 5 5 5
10 10 9 9 9 9 9 8 8 8 8 8 7 7 7 7 7 7 7 7 6 6 6 6 6 6 6 6 5 5 5 5 5 5 5 5 5 5 5 4 4 4 4 4
9 9 9 9 8 8 8 8 8 7 7 7 7 7 7 6 6 6 6 6 6 6 6 6 5 5 5 5 5 5 5 5 5 5 4 4 4 4 4 4 4 4 4 4
8 8 8 8 8 8 8 8 7 7 7 7 7 6 6 6 6 6 6 5 5 5 5 5 5 5 4 5 5 4 4 4 4 4 4 4 4 4 4 3 3 3 3 3
8 8 8 7 7 7 7 7 7 7 7 6 6 6 6 6 5 5 5 5 5 5 4 4 4 4 4 4 4 4 4 4 4 4 4 3 3 3 3 3 3 3 3 3
8 7 7 7 7 7 6 6 6 6 6 6 6 6 5 5 5 5 5 4 4 4 4 4 4 4 4 4 4 4 3 3 3 3 3 3 3 3 3 2 3 3 3 3
7 7 6 6 6 6 6 6 6 5 5 5 5 5 5 5 4 4 4 4 4 4 4 3 3 3 3 3 3 3 3 3 3 3 3 3 2 2 2 2 2 2 2 2
6 6 6 6 6 6 5 5 5 5 5 5 5 4 4 4 4 4 3 3 3 3 3 3 3 3 3 3 3 2 2 2 2 2 2 2 2 2 2 2 2 2 2 1
6 6 6 5 5 5 5 5 4 4 4 4 4 4 4 3 3 3 3 3 3 3 3 3 2 2 2 2 2 2 2 2 2 2 2 2 2 2 1 1 1 1 1 1
Wind_Speed
4 3 3 3 4 5 6 7 7 7 7 8 6 4 3 1 1 1 1 1 1 0 0 0 0 1 2 2 2 2 2 3 4 3 3 3 3 3 3 3 3 3 2 2
1 1 2 3 5 6 6 5 6 4 6 6 3 1 1 1 1 1 0 0 0 0 0 1 2 2 2 2 2 2 2 4 3 2 2 3 3 3 3 3 3 2 3 3
3 3 2 5 6 6 5 5 6 7 7 2 1 2 2 2 3 3 1 0 0 0 1 2 3 3 3 3 2 2 3 3 2 2 3 3 3 2 3 4 3 3 3 3
1 1 5 6 3 4 4 3 4 4 3 4 3 1 0 1 2 1 1 1 1 1 2 2 2 2 2 1 1 2 3 3 3 2 3 3 3 3 4 3 4 4 4 4
3 3 6 6 3 3 4 4 3 4 3 1 3 3 3 2 1 2 2 1 1 1 1 1 2 2 1 1 1 1 3 4 4 3 3 3 4 5 4 4 4 4 4 4
4 4 6 6 3 1 3 4 3 4 4 4 4 2 3 2 0 1 0 0 1 1 2 2 3 2 1 1 1 3 4 4 3 3 4 5 6 5 4 4 4 4 4 4
4 5 7 6 3 3 4 6 2 4 5 5 4 4 3 1 0 0 0 1 1 1 2 2 2 2 2 2 3 5 4 3 2 3 4 4 4 3 3 4 3 3 4 4
5 4 7 3 4 5 6 2 3 4 4 4 3 2 1 1 0 1 1 2 2 1 2 3 2 2 2 4 5 4 2 2 3 3 3 3 2 3 3 3 3 4 3 4
8 7 4 2 4 3 3 3 3 4 4 4 3 2 1 1 0 1 1 1 1 1 2 3 3 2 3 5 4 3 2 3 3 3 3 2 2 2 2 2 3 3 3 4
3 5 4 4 3 2 2 3 3 4 4 4 3 3 2 1 1 1 1 1 1 2 2 4 4 3 3 4 4 3 3 3 3 3 3 2 2 2 2 3 3 4 4 4
4 5 4 4 4 3 2 2 2 2 3 4 4 3 2 2 2 2 1 2 1 1 2 4 4 4 4 4 3 3 3 3 3 3 3 3 3 3 4 4 5 5 5 4
7 7 6 5 4 3 3 2 3 3 2 2 3 3 2 2 2 2 2 1 2 3 3 4 4 5 4 3 2 2 3 4 3 3 2 2 3 4 4 4 6 6 5 4
5 4 5 4 3 3 3 3 3 4 4 3 2 3 3 2 2 1 2 2 3 4 4 4 4 5 5 4 3 2 3 4 3 3 2 3 3 3 3 4 4 5 5 5
4 3 2 3 4 3 3 3 2 2 2 2 2 2 2 1 1 2 3 3 3 4 4 4 5 6 5 4 3 3 4 4 4 3 3 3 3 3 3 3 3 3 4 4
4 4 5 3 2 2 2 3 3 1 0 1 1 2 2 2 2 3 3 3 2 3 4 4 5 6 5 4 3 4 4 3 3 3 3 3 2 3 3 3 3 3 3 3
3 3 4 4 4 3 3 3 3 2 2 2 2 2 3 2 2 3 2 2 2 4 5 5 5 6 5 4 4 4 4 6 5 3 3 2 2 2 3 3 3 3 3 3
5 5 5 5 5 4 4 4 4 4 3 3 3 3 2 1 2 2 3 3 3 4 4 4 5 5 5 4 3 3 3 4 5 3 2 3 2 2 3 3 3 3 3 3
7 8 7 7 6 5 3 3 3 3 4 4 3 2 2 2 3 4 4 3 3 3 4 4 4 4 4 4 3 3 3 3 2 2 3 3 3 2 2 2 3 3 3 3
5 5 5 5 5 4 4 3 3 3 3 2 3 3 3 4 4 3 3 2 2 4 5 5 5 4 4 5 4 3 3 3 3 3 3 3 3 2 2 2 2 3 3 2
4 4 4 3 3 3 4 3 3 3 3 3 3 3 3 3 3 3 3 3 4 4 5 4 3 3 4 4 5 2 3 3 3 3 3 2 3 3 2 2 2 2 2 2
5 5 4 3 2 2 3 3 3 3 3 3 4 4 4 4 3 2 2 4 5 4 4 5 3 3 3 4 4 2 2 3 3 3 3 3 3 3 3 2 2 3 3 3
4 4 4 3 3 2 2 2 3 3 2 2 3 3 3 3 3 2 3 4 4 5 3 3 3 4 5 5 2 2 2 3 3 3 3 2 2 2 3 3 3 3 3 3
4 4 4 4 4 2 1 1 1 2 2 2 2 3 3 3 3 2 4 4 3 5 3 3 5 6 6 4 2 2 3 3 3 3 2 2 2 2 2 3 3 3 3 3
3 3 3 3 3 2 1 1 1 1 2 2 2 2 2 1 2 2 3 4 5 5 3 4 5 5 5 2 2 2 3 2 2 2 2 2 2 2 2 2 3 3 3 3
3 3 3 3 3 3 3 2 1 1 1 1 1 1 1 2 2 2 2 3 4 4 2 4 5 6 3 2 2 2 2 2 2 2 2 2 2 2 2 2 2 2 3 3
3 3 3 4 4 3 2 2 2 2 1 1 2 2 1 1 1 1 1 2 3 4 3 2 3 3 2 2 2 2 2 3 3 2 2 2 2 2 2 3 3 3 3 3
2 2 2 1 1 2 2 3 2 3 2 2 2 2 2 1 1 1 1 2 2 2 2 2 2 2 2 2 2 2 2 2 2 2 2 2 2 3 3 3 3 3 3 3
Wind_Direction
227 228 194 216 224 195 191 196 197 224 222 244 244 236 240 234 75 63 39 60 100 89 1 331 284 275 272 265 243 207 192 213 229 229 230 235 229 226 226 223 224 218 215 227
271 235 209 245 248 222 216 210 211 222 248 244 235 181 178 188 151 159 233 278 25 50 17 290 265 263 275 272 261 211 206 228 237 225 220 229 228 223 222 227 227 213 215 220
248 300 358 270 242 214 211 212 194 216 237 214 167 191 198 203 185 194 216 181 25 271 260 259 259 246 246 250 251 226 232 243 244 233 234 239 237 223 229 229 220 219 229 224
159 85 231 244 253 199 203 235 209 210 229 199 197 179 99 214 185 204 231 251 303 305 302 302 298 291 281 282 240 235 245 256 255 239 244 246 234 236 236 230 221 222 230 234
142 206 271 291 267 189 194 259 223 196 199 164 134 64 354 307 193 199 211 228 252 271 288 323 317 317 321 325 304 271 267 264 259 248 245 240 239 241 236 227 228 229 229 228
142 182 236 250 272 218 130 268 247 178 175 161 123 114 268 288 238 216 225 349 327 338 8 351 334 350 7 324 315 274 268 269 261 251 249 246 244 244 237 228 232 234 241 236
170 211 256 256 264 121 163 240 222 169 169 160 174 197 211 208 338 256 15 11 20 17 356 327 329 1 356 327 288 278 278 281 269 255 252 252 250 244 233 229 231 236 249 252
158 196 251 254 135 171 211 208 154 165 169 162 174 182 178 149 104 15 19 17 32 19 333 327 337 359 331 307 300 304 301 293 282 273 271 282 264 259 241 225 228 238 251 265
187 211 242 223 206 224 166 166 178 170 176 160 158 184 202 205 261 335 348 351 7 7 335 332 334 330 306 304 317 322 315 294 288 287 280 275 255 250 248 231 236 244 247 258
222 257 258 263 259 254 198 192 187 168 165 161 175 193 202 221 249 308 315 325 344 356 337 323 322 320 302 307 323 329 321 307 299 293 294 294 277 241 227 227 237 245 250 260
234 260 288 278 247 225 194 168 148 156 168 176 172 194 198 203 222 236 268 297 311 305 300 302 311 313 310 312 322 322 317 314 308 291 283 285 285 265 245 235 231 234 240 241
222 217 200 236 236 201 178 202 186 166 162 171 174 189 198 212 223 229 256 281 302 304 300 300 306 304 305 307 305 304 315 313 308 300 291 285 290 302 287 270 263 254 253 252
219 208 199 224 220 195 190 205 201 187 183 182 191 187 189 212 226 242 265 275 280 284 288 293 298 299 302 306 304 293 287 296 303 299 291 285 283 283 299 308 294 274 266 262
212 166 202 219 217 209 189 187 179 172 190 188 189 185 182 202 241 262 269 270 275 285 291 293 297 297 297 296 294 291 290 291 294 283 276 271 270 274 272 277 297 303 294 278
224 198 195 195 169 158 148 137 130 146 187 223 182 183 191 210 241 263 275 277 283 290 292 295 296 295 297 300 296 291 291 288 284 282 276 271 272 273 275 271 271 283 302 307
198 168 153 156 167 169 153 154 165 204 211 212 218 226 226 223 243 266 274 270 277 281 284 290 291 293 296 300 299 296 291 295 298 289 283 282 282 275 273 271 268 269 274 285
169 183 183 182 191 193 193 194 194 204 210 218 226 227 219 228 268 279 283 282 276 277 282 286 292 299 305 301 293 290 290 296 304 301 285 279 275 271 270 269 268 271 271 272
196 196 190 184 184 188 198 203 202 204 215 226 219 205 208 221 243 261 277 293 305 307 298 290 292 306 309 305 299 293 295 296 299 290 288 281 278 270 275 275 271 275 288 289
187 185 185 186 184 176 183 197 210 217 222 207 197 213 227 238 246 257 270 277 278 285 288 290 306 321 309 304 314 300 299 304 304 299 291 289 286 273 269 269 273 276 281 287
179 175 170 173 173 174 190 200 199 207 212 200 201 219 239 253 254 259 263 262 256 257 268 284 298 303 299 301 315 309 304 300 300 298 293 282 276 272 269 271 276 283 286 282
179 174 171 175 185 189 195 197 195 208 213 202 202 217 234 250 249 245 251 278 284 284 284 290 302 298 300 311 319 316 309 305 301 291 286 280 278 274 270 273 279 281 283 285
177 176 182 184 185 211 221 206 200 202 208 216 222 220 224 244 256 265 257 256 271 289 297 285 289 296 312 320 318 308 305 304 303 295 287 283 280 277 276 278 278 281 282 280
181 182 182 188 191 196 192 186 194 190 204 214 216 219 221 231 227 237 276 278 274 290 302 284 295 308 322 334 323 310 302 299 299 298 295 294 290 284 280 283 285 286 288 289
173 176 179 175 149 138 164 241 235 221 216 221 228 221 213 237 276 263 256 283 298 302 298 291 306 322 337 343 323 316 308 302 302 302 301 304 303 295 288 289 293 296 296 296
174 172 164 155 166 195 210 209 208 258 250 280 294 289 262 222 230 268 292 295 305 315 313 309 318 327 336 324 314 309 305 299 293 304 303 302 298 297 294 290 291 297 303 302
177 184 191 197 200 204 199 191 204 229 234 275 295 297 303 304 281 280 292 305 308 319 325 317 316 319 323 313 308 310 310 313 320 321 308 301 300 301 301 303 306 305 303 305
175 182 183 202 222 201 191 194 206 225 228 238 265 280 285 292 294 295 301 309 314 317 317 316 312 312 310 307 305 309 312 313 314 310 306 304 303 301 300 301 300 302 307 309
Height
1505 1503 1503 1504 1504 1506 1509 1511 1516 1512 1510 1503 1500 1499 1499 1499 1499 1499 1500 1500 1500 1500 1501 1502 1503 1504 1505 1505 1506 1507 1507 1507 1507 1507 1508 1508 1507 1507 1507 1507 1506 1506 1506 1506
1505 1502 1503 1504 1502 1502 1504 1504 1506 1506 1505 1497 1497 1497 1497 1498 1498 1499 1499 1499 1499 1500 1500 1501 1501 1502 1502 1503 1503 1504 1504 1504 1504 1504 1504 1503 1503 1503 1503 1503 1502 1502 1502 1501
1512 1506 1503 1507 1500 1499 1499 1498 1500 1503 1499 1495 1496 1496 1496 1496 1497 1497 1498 1499 1499 1499 1499 1499 1500 1500 1499 1500 1500 1500 1500 1500 1500 1500 1500 1499 1499 1499 1499 1498 1498 1498 1497 1497
1514 1511 1514 1502 1493 1492 1494 1494 1494 1494 1493 1494 1494 1495 1496 1496 1496 1497 1497 1498 1498 1498 1498 1498 1498 1498 1497 1497 1497 1497 1497 1496 1496 1496 1496 1495 1495 1494 1494 1494 1494 1493 1493 1493
1517 1516 1510 1499 1492 1492 1494 1494 1491 1492 1492 1493 1493 1494 1495 1495 1496 1496 1496 1497 1497 1497 1497 1496 1496 1495 1495 1494 1494 1493 1493 1492 1492 1492 1491 1491 1490 1490 1489 1489 1489 1489 1489 1489
1515 1513 1512 1498 1489 1487 1492 1496 1489 1489 1490 1491 1493 1498 1497 1495 1495 1495 1495 1496 1496 1496 1495 1494 1493 1493 1492 1491 1490 1489 1489 1488 1488 1488 1487 1486 1486 1485 1485 1485 1484 1484 1484 1484
1512 1512 1504 1491 1487 1488 1499 1496 1487 1487 1488 1490 1491 1493 1494 1493 1493 1494 1494 1494 1494 1494 1493 1493 1492 1490 1489 1488 1487 1486 1485 1485 1484 1484 1483 1482 1481 1481 1480 1480 1480 1480 1480 1480
1511 1511 1504 1486 1486 1490 1489 1485 1485 1486 1487 1488 1490 1490 1491 1492 1492 1492 1492 1492 1492 1492 1491 1491 1490 1488 1487 1486 1484 1483 1482 1481 1480 1479 1479 1478 1477 1476 1476 1475 1475 1475 1475 1475
1496 1494 1486 1483 1483 1483 1483 1483 1484 1484 1486 1487 1488 1489 1490 1490 1491 1491 1491 1490 1490 1490 1489 1488 1487 1486 1484 1483 1482 1480 1479 1478 1476 1475 1475 1474 1473 1472 1471 1471 1470 1470 1470 1470
1490 1485 1482 1482 1481 1482 1482 1482 1483 1484 1485 1486 1487 1488 1488 1489 1489 1489 1489 1489 1488 1488 1487 1486 1485 1484 1482 1481 1479 1477 1476 1475 1473 1472 1470 1469 1468 1468 1467 1466 1466 1465 1465 1465
1485 1482 1481 1479 1479 1480 1480 1481 1482 1483 1484 1485 1485 1486 1486 1486 1487 1487 1487 1487 1486 1485 1484 1483 1482 1481 1480 1478 1476 1475 1473 1471 1470 1468 1466 1464 1464 1464 1463 1462 1462 1462 1461 1460
1479 1476 1477 1477 1477 1478 1478 1479 1480 1481 1482 1483 1483 1483 1484 1484 1484 1484 1484 1484 1484 1483 1482 1480 1479 1478 1477 1475 1474 1472 1469 1468 1466 1464 1463 1461 1460 1459 1458 1458 1457 1457 1457 1456
1471 1471 1473 1474 1475 1476 1477 1478 1479 1479 1480 1480 1481 1481 1481 1481 1481 1481 1481 1481 1480 1480 1478 1477 1476 1475 1473 1472 1470 1468 1466 1465 1463 1461 1459 1458 1456 1455 1454 1453 1453 1452 1452 1451
1468 1469 1470 1471 1472 1473 1474 1475 1476 1477 1477 1478 1478 1478 1478 1478 1478 1478 1478 1478 1477 1476 1475 1473 1472 1471 1470 1468 1466 1464 1463 1461 1459 1458 1456 1455 1453 1452 1450 1448 1447 1446 1447 1446
1465 1466 1467 1468 1470 1471 1472 1473 1473 1474 1474 1475 1475 1475 1475 1475 1475 1475 1475 1474 1473 1472 1471 1470 1468 1467 1466 1464 1462 1460 1458 1457 1455 1454 1453 1451 1450 1449 1447 1445 1444 1443 1442 1442
1462 1463 1464 1466 1467 1468 1469 1469 1470 1471 1471 1471 1472 1472 1472 1472 1472 1472 1471 1471 1469 1468 1467 1466 1464 1463 1461 1460 1458 1456 1454 1453 1452 1450 1449 1447 1446 1445 1443 1442 1440 1439 1438 1438
1458 1460 1461 1463 1464 1465 1466 1466 1467 1468 1468 1469 1469 1469 1469 1469 1469 1468 1468 1467 1466 1465 1463 1462 1460 1459 1457 1456 1454 1452 1450 1449 1448 1446 1445 1444 1443 1441 1440 1439 1437 1436 1435 1434
1455 1456 1458 1459 1460 1462 1463 1464 1464 1465 1465 1466 1466 1466 1465 1465 1465 1464 1464 1463 1462 1461 1460 1458 1457 1455 1453 1452 1450 1448 1447 1445 1444 1443 1442 1441 1439 1438 1437 1435 1434 1433 1432 1431
1452 1454 1455 1457 1458 1459 1459 1460 1461 1461 1462 1462 1462 1462 1462 1462 1461 1461 1460 1459 1458 1457 1456 1455 1453 1451 1450 1448 1446 1445 1443 1441 1440 1439 1438 1437 1436 1434 1433 1432 1431 1430 1429 1427
1449 1451 1452 1454 1455 1456 1456 1457 1458 1458 1458 1459 1458 1458 1458 1458 1458 1457 1456 1455 1454 1453 1452 1451 1449 1447 1446 1444 1443 1441 1439 1438 1436 1435 1434 1433 1432 1431 1430 1428 1427 1426 1425 1424
1446 1448 1450 1451 1452 1453 1454 1454 1455 1455 1455 1455 1454 1454 1454 1454 1454 1453 1452 1451 1450 1450 1448 1447 1445 1444 1442 1441 1439 1437 1436 1434 1433 1431 1430 1429 1428 1427 1426 1425 1424 1423 1422 1421
1444 1446 1447 1449 1449 1450 1451 1451 1451 1451 1451 1451 1450 1450 1449 1449 1449 1449 1448 1448 1446 1445 1444 1443 1442 1440 1439 1437 1435 1434 1432 1431 1429 1428 1427 1425 1424 1423 1422 1421 1420 1419 1418 1417
1442 1443 1445 1446 1447 1447 1448 1448 1448 1448 1448 1447 1446 1446 1445 1445 1445 1445 1444 1444 1443 1442 1440 1439 1438 1436 1435 1433 1431 1430 1428 1427 1426 1424 1423 1422 1421 1420 1419 1418 1417 1416 1414 1413
1439 1441 1442 1443 1444 1445 1445 1445 1445 1445 1445 1444 1444 1443 1443 1442 1442 1441 1441 1440 1439 1438 1437 1436 1434 1433 1431 1430 1428 1426 1425 1424 1422 1421 1420 1419 1418 1417 1416 1415 1413 1412 1411 1409
1437 1438 1439 1440 1441 1442 1442 1442 1442 1442 1442 1441 1441 1440 1440 1440 1439 1438 1437 1437 1436 1434 1433 1432 1430 1429 1428 1426 1425 1423 1422 1421 1419 1418 1417 1416 1415 1414 1413 1411 1410 1408 1407 1405
1435 1436 1437 1438 1438 1439 1439 1439 1439 1439 1438 1438 1438 1437 1437 1437 1436 1435 1434 1433 1432 1431 1429 1428 1426 1425 1424 1422 1421 1420 1418 1417 1416 1415 1414 1413 1412 1410 1409 1408 1406 1405 1403 1402
1433 1433 1434 1435 1435 1436 1436 1436 1436 1435 1435 1435 1434 1434 1434 1433 1432 1432 1431 1429 1428 1427 1426 1424 1423 1422 1420 1419 1418 1417 1415 1414 1413 1412 1411 1409 1408 1407 1406 1404 1403 1401 1400 1398